Tracking 30744 objects as of 24-Jun-2025
HD Live streaming from Space Station
objects crossing your sky now

GLOBALSTAR M055

Track GLOBALSTAR M055 now!
10-day predictions
GLOBALSTAR M055 is classified as:


NORAD ID: 25910
Int'l Code: 1999-049D
Perigee: 1,552.8 km
Apogee: 1,565.0 km
Inclination: 52.0 °
Period: 117.1 minutes
Semi major axis: 7929 km
RCS: 2.0613 m2 (large)
Launch date: September 22, 1999
Source: Globalstar (GLOB)
Launch site: TYURATAM MISSILE AND SPACE COMPLEX (TTMTR)
Your satellite tracking list
Your tracking list is empty




NASA's NSSDC Master Catalog

Two Line Element Set (TLE):
1 25910U 99049D   25174.84222728 -.00000090  00000-0  38971-4 0  9994
2 25910  52.0040 340.3790 0007676 141.2576 218.8827 12.29428938169109
Source of the keplerian elements: AFSPC